Simultaneous Nadir Overpasses (SNOs) Predictions

Prediction of SNOs between AURA and NPP Satellite Orbit:

Table of predicted SNOs for the next 14.0 days since TLE Epoch: 10/22/2022
Index Date (AURA) Time (AURA) Lat,Lon (AURA) SZA (AURA ) Date (NPP) Time (NPP) Lat,Lon (NPP) SZA (NPP ) Distance(km) Time Diff (sec)
1 10/24/2022 10:36:09 -79.24, 96.22 76.37 10/24/2022 10:35:02 -79.24, 96.26 76.33 0.71 67
2 10/24/2022 11:25:29 79.46, -94.62 103.34 10/24/2022 11:25:40 79.45, -94.74 103.36 2.68 11
3 10/27/2022 02:52:33 -79.32,-147.32 75.60 10/27/2022 02:51:54 -79.32,-147.35 75.56 0.82 39
4 10/27/2022 03:41:51 79.62, 22.37 104.01 10/27/2022 03:42:29 79.63, 22.49 103.96 2.48 38
5 10/29/2022 19:08:56 -79.42, -30.75 74.86 10/29/2022 19:08:45 -79.43, -30.71 74.87 1.10 11
6 10/29/2022 19:58:16 79.64, 138.42 104.86 10/29/2022 19:59:23 79.63, 138.33 104.82 1.85 67
7 11/01/2022 10:36:00 79.18, -84.08 106.30 11/01/2022 10:35:01 79.17, -84.20 106.37 2.46 59
8 11/01/2022 11:25:19 -79.50, 85.66 74.12 11/01/2022 11:25:37 -79.50, 85.65 74.13 0.23 18
9 11/04/2022 02:52:19 79.35, 32.90 106.90 11/04/2022 02:51:49 79.35, 32.89 106.93 0.25 30



Historial Predications of SNOs between AURA and NPP
